This is the latest recevied weather packets stored in our database for station/object OK1VCF-8. If no packets are shown the sender has not sent any weather packets the latest 10 day(s).
| Time | Temp. | Humidity | Pressure | Rain* | Wind** | Luminosity | Snow |
|---|---|---|---|---|---|---|---|
| 1777314077 | 13.33° C | 35% | 1021.5 hPa | - | - | - | - |
| 1777313636 | 13.33° C | 34% | 1021.5 hPa | - | - | - | - |
| 1777313197 | 13.33° C | 34% | 1021.4 hPa | - | - | - | - |
| 1777312759 | 13.89° C | 32% | 1021.3 hPa | - | - | - | - |
| 1777312321 | 14.44° C | 32% | 1021.2 hPa | - | - | - | - |
| 1777310855 | 14.44° C | 30% | 1021.4 hPa | - | - | - | - |
| 1777310417 | 15° C | 30% | 1021.4 hPa | - | - | - | - |
| 1777309979 | 15° C | 30% | 1021.4 hPa | - | - | - | - |
| 1777309542 | 15.56° C | 30% | 1021.2 hPa | - | - | - | - |
| 1777309101 | 15.56° C | 30% | 1021.4 hPa | - | - | - | - |
| 1777308663 | 15.56° C | 30% | 1021.4 hPa | - | - | - | - |
| 1777308223 | 15.56° C | 30% | 1021.4 hPa | - | - | - | - |
| 1777307783 | 15.56° C | 29% | 1021.4 hPa | - | - | - | - |
| 1777307344 | 16.11° C | 28% | 1021.6 hPa | - | - | - | - |
| 1777306907 | 16.11° C | 29% | 1021.6 hPa | - | - | - | - |
| 1777306467 | 16.67° C | 28% | 1021.6 hPa | - | - | - | - |
| 1777306030 | 16.67° C | 28% | 1021.6 hPa | - | - | - | - |
| 1777305589 | 16.67° C | 28% | 1021.7 hPa | - | - | - | - |
| 1777305151 | 17.78° C | 27% | 1021.6 hPa | - | - | - | - |
| 1777304714 | 17.78° C | 28% | 1021.7 hPa | - | - | - | - |
| 1777304111 | 17.78° C | 28% | 1021.8 hPa | - | - | - | - |
| 1777303672 | 17.78° C | 26% | 1021.8 hPa | - | - | - | - |
| 1777303233 | 17.78° C | 26% | 1021.8 hPa | - | - | - | - |
| 1777302795 | 17.78° C | 28% | 1021.9 hPa | - | - | - | - |
| 1777302356 | 17.22° C | 28% | 1022 hPa | - | - | - | - |
* Rain since midnight (hover to see other rain measurements)
** Current wind speed in m/s (hover to see current wind gust speed)